Location: Isle of Man Observatory
(54.1776°N, 4.6264°W)
Time: 19:43:56
(UTC+02:00)

Mayak - Visible Passes

Search period start: 17 July 2018 00:00
Search period end: 27 July 2018 00:00
Orbit: 582 x 605 km, 97.6° (Epoch: 17 July)

Date Brightness Start Highest point End Pass type
(mag) Time Alt. Az. Time Alt. Az. Time Alt. Az.
17 Jul -1.0 01:31:19 10° NNE 01:35:24 54° E 01:37:46 23° S visible
17 Jul 0.7 03:07:29 10° N 03:10:45 23° WNW 03:13:59 10° WSW visible
18 Jul -1.2 01:40:26 10° NNE 01:44:35 66° ESE 01:46:58 24° S visible
18 Jul 0.9 03:16:50 10° NNW 03:19:48 19° WNW 03:22:47 10° WSW visible
19 Jul 1.0 00:16:01 10° ENE 00:17:26 11° E 00:18:49 10° ESE visible
19 Jul -1.3 01:49:35 10° NNE 01:53:45 81° ESE 01:56:11 24° S visible
19 Jul 1.1 03:26:13 10° NNW 03:28:52 17° NW 03:31:31 10° W visible
20 Jul 0.8 00:24:31 10° NE 00:26:43 14° E 00:28:46 10° ESE visible
20 Jul -1.3 01:58:45 10° NNE 02:02:55 84° WNW 02:05:23 24° SSW visible
20 Jul 1.2 03:35:40 10° NNW 03:37:55 14° NW 03:40:10 10° W visible
21 Jul 0.6 00:33:16 10° NE 00:35:58 17° E 00:37:58 13° ESE visible
21 Jul -1.1 02:07:55 10° N 02:12:04 69° WNW 02:14:35 23° SSW visible
21 Jul 1.3 03:45:14 10° NNW 03:46:57 12° NW 03:48:40 10° WNW visible
22 Jul 0.4 00:42:08 10° NE 00:45:14 20° E 00:47:10 15° SE visible
22 Jul -0.8 02:17:07 10° N 02:21:12 57° WNW 02:23:47 21° SW visible
22 Jul 1.5 03:55:06 10° NW 03:55:58 11° NW 03:56:51 10° WNW visible
23 Jul 0.2 00:51:04 10° NE 00:54:29 24° E 00:56:22 18° SE visible
23 Jul -0.5 02:26:19 10° N 02:30:19 47° WNW 02:32:59 19° SW visible
24 Jul -0.1 01:00:04 10° NNE 01:03:42 29° E 01:05:34 20° SE visible
24 Jul -0.2 02:35:33 10° N 02:39:26 39° WNW 02:42:10 17° SW visible
25 Jul -0.3 01:09:05 10° NNE 01:12:56 34° E 01:14:45 23° SE visible
25 Jul 0.1 02:44:47 10° N 02:48:32 33° WNW 02:51:22 15° WSW visible
26 Jul -0.6 01:18:09 10° NNE 01:22:08 41° E 01:23:56 26° SSE visible
26 Jul 0.4 02:54:03 10° N 02:57:37 28° WNW 03:00:33 13° WSW visible
